Weather in Azovo

Russia / Republic of Bashkortostan     54°27′16″N   57°05′46″E
temp.,
°C
wind,
m/s
gust,
m/s
humid.,
%
clouds,
%
prec.,
mm/h
press.,
hPa
HPBL,
m
2 march, tue
tue223:00−16sw129897 0.4 101825
02:00−18s1298100 0.1 101831
05:00−18s2598100 0.1 1017169
08:00−20s279798 0.0 1015206
11:00−14s498698 0.1 1013463
14:00−10ssw51287100 0.0 1009627
17:00−11sw61493100 1.6 1007747
20:00−12ssw61492100 1.3 1005757
3 march, wed
wed323:00−9ssw51493100 2.2 1004747
02:00−6ssw51494100 1.2 1001763
05:00−4ssw51394100 2.4 1000713
08:00−4sw41196100 1.4 1000621
11:00−3wsw4895100 2.6 1000700
14:00−2wsw5894100 0.9 1000739
17:00−2sw4894100 1.4 1001649
20:00−4sw3996100 0.9 1002522
4 march, thu
thu423:00−6sw3996100 1.4 1003336
02:00−8sw3896100 0.6 1002322
05:00−9sw3895100 1.6 1003387
08:00−8w3895100 1.5 1004552
11:00−10wsw3694100 2.2 1006413
14:00−7wsw4892100 0.4 1006605
17:00−7sw51093100 0.6 1007626
20:00−7sw51294100 0.7 1007722
5 march, fri
fri523:00−7ssw61493100 1.5 1006780
02:00−6ssw71593100 2.1 1003971
05:00−3sw81794100 3.9 10011251
08:00−2sw91793100 1.3 10011328
11:00−2sw91795100 2.8 10021166
14:00−1sw81496100 2.7 10031041
17:00−1sw71397100 5.3 1005899
20:00−1wsw41098100 2.9 1007741
6 march, sat
sat623:00−4wnw1198100 6.1 1008102
02:00−4wsw1398100 1.8 1009155
05:00−6nw1197100 2.6 101121
08:00−7ese1197100 0.3 101021
11:00−3e2397100 1.4 1006222
14:000ssw61599100 3.2 10021112
17:000sw81797100 6.4 9981308
20:00+1sw81797100 2.3 9971299